#timestamp,LO_Frequency,Hit,StdDev 
1701820815.6,286046999.1,N
1701820835.4,286046998.5,N
1701820855.2,286047000.9,N
1701820875.1,286046998.7,N
1701820876.0,286046998.7,N
1701820895.8,286046997.0,N
1701820915.6,286046997.0,N
1701820935.5,286046996.6,N
1701820955.3,286046997.4,N
1701820975.2,286046997.5,N
1701820995.9,286046996.8,N
1701821015.7,286046996.9,N
1701821035.6,286046998.6,N
1701821055.4,286046998.4,N
1701821075.2,286046998.2,N
1701821095.1,286046998.5,N
1701821096.0,286046998.5,N
1701821115.8,286046998.6,N
1701821135.7,286047001.1,N
1701821155.5,286046998.3,N
1701821175.3,286047001.2,N
1701821195.2,286046999.0,N
1701821215.0,286046997.0,N
1701821215.9,286046997.0,N
1701821235.8,286046998.1,N
1701821255.6,286046998.1,N
1701821275.4,286047000.8,N
1701821295.3,286047000.8,N
1701821315.1,286047000.1,N
1701821335.9,286047000.8,N
1701821355.7,286047001.1,N
1701821375.5,286046998.7,N
1701821395.4,286046998.9,N
1701821415.2,286047000.7,N
1701821435.0,286047001.0,N
1701821435.9,286047001.0,N
1701821455.8,286047002.7,N
1701821475.6,286047002.4,N
1701821495.5,286047002.4,N
1701821515.3,286047000.7,N
1701821535.1,286047001.0,N
1701821555.9,286046998.1,N
1701821575.7,286047000.0,N
1701821595.5,286047000.6,N
1701821615.4,286046998.1,N
1701821635.2,286046999.1,N
1701821655.1,286046999.4,N
1701821656.0,286046999.4,N
1701821675.8,286046998.9,N
1701821695.6,286046999.3,N
1701821715.5,286046998.3,N
1701821735.3,286046998.9,N
1701821755.1,286046998.6,N
1701821775.9,286046998.5,N
1701821795.7,286046998.8,N
1701821815.6,286046998.7,N
1701821835.4,286046998.1,N
1701821855.2,286047000.8,N
1701821875.1,286047000.6,N
1701821876.0,286047000.6,N
1701821895.8,286047001.2,N
1701821915.7,286046998.2,N
1701821935.5,286046998.2,N
1701821955.3,286047000.7,N
1701821975.2,286046998.6,N
1701821995.9,286047000.8,N
1701822015.7,286047001.0,N
1701822035.6,286047000.7,N
1701822055.4,286047001.2,N
1701822075.3,286046998.5,N
1701822095.1,286046998.2,N
1701822096.0,286046998.2,N
1701822115.8,286046998.9,N
1701822135.7,286046998.7,N
1701822155.5,286046998.4,N
1701822175.3,286046998.4,N
1701822195.2,286046998.9,N
1701822215.0,286046998.4,N
1701822215.9,286046998.4,N
1701822235.8,286046998.2,N
1701822255.6,286047000.6,N
1701822275.4,286047000.0,N
1701822295.3,286047000.6,N
1701822315.1,286047000.0,N
1701822335.8,286047002.8,N
1701822355.7,286047000.3,N
1701822375.5,286047002.5,N
1701822395.4,286046999.7,N
1701822415.2,286047002.8,N
1701822435.0,286047002.4,N
1701822435.9,286047002.4,N
1701822455.8,286046999.7,N
1701822475.6,286046998.6,N
1701822495.5,286046998.2,N
1701822515.3,286047000.4,N
1701822535.1,286047000.1,N
1701822555.9,286046999.7,N
1701822575.7,286047000.6,N
1701822595.5,286047000.6,N
1701822615.4,286047000.0,N
1701822635.2,286047000.1,N
1701822655.1,286047000.5,N
1701822656.0,286047000.5,N
1701822675.8,286047000.5,N
1701822695.6,286046999.8,N
1701822715.5,286047002.3,N
1701822735.3,286047002.2,N
1701822755.1,286047003.9,N
1701822775.9,286047001.6,N
1701822795.7,286047001.9,N
1701822815.6,286047004.4,Y
1701822835.4,286047002.8,P
1701822855.2,286047002.3,N
1701822875.1,286047002.4,N
1701822876.0,286047002.4,Y
1701822895.8,286047000.8,P
1701822915.7,286046998.6,N
1701822935.5,286046998.8,N
1701822955.3,286046999.2,N
1701822975.2,286046999.6,N
1701822995.0,286046996.8,N
1701822995.9,286046996.8,N
1701823015.7,286046997.7,N
1701823035.6,286046997.0,N
1701823055.4,286046996.8,N
1701823075.3,286046998.9,N
1701823095.1,286047000.6,N
1701823115.8,286046999.4,N
1701823135.7,286046996.6,N
1701823155.5,286047000.8,N
1701823175.4,286046998.7,N
1701823195.2,286046998.5,N
1701823215.0,286047001.1,N
1701823216.0,286047001.1,N
1701823235.8,286047000.0,N
1701823255.6,286046998.2,N
1701823275.5,286047000.9,N
1701823295.3,286046998.3,N
1701823315.1,286046996.9,N
1701823335.9,286046998.2,N
1701823355.7,286046999.5,N
1701823375.6,286046996.5,N
1701823395.4,286046997.1,N
1701823415.2,286046997.5,N
1701823435.1,286046997.3,N
1701823436.0,286046997.3,N
1701823455.8,286046996.5,N
1701823475.7,286046998.5,N
1701823495.5,286046996.7,N
1701823515.3,286046999.2,N
1701823535.2,286047001.2,N
1701823555.0,286047000.7,N
1701823555.9,286047000.7,N
1701823575.8,286046998.5,N
1701823595.6,286046998.4,N
1701823615.4,286047001.1,N
1701823635.3,286047000.0,N
1701823655.1,286046999.7,N
1701823675.9,286047000.0,N
1701823695.7,286047000.9,N
1701823715.5,286046999.7,N
1701823735.4,286047000.4,N
1701823755.2,286046999.6,N
1701823775.1,286046996.9,N
1701823776.0,286046996.9,N
1701823795.8,286046999.6,N
1701823815.7,286046996.5,N
1701823835.5,286047000.8,N
1701823855.3,286047000.7,N
1701823875.2,286046998.5,N
1701823895.0,286046996.5,N
1701823895.9,286046996.5,N
1701823915.8,286046996.9,N
1701823935.6,286046999.4,N
1701823955.4,286046998.7,N
1701823975.3,286046999.6,N
1701823995.1,286046999.5,N
1701824015.9,286046999.5,N
1701824035.7,286046996.8,N
1701824055.5,286046999.4,N
1701824075.4,286046996.7,N
1701824095.2,286046996.5,N
1701824115.1,286046996.9,N
1701824116.0,286046996.9,N
1701824135.8,286046998.5,N
1701824155.6,286046998.5,N
1701824175.5,286046999.9,N
1701824195.3,286047000.3,N
1701824215.1,286046998.2,N
1701824235.9,286047001.2,N
1701824255.7,286047001.1,N
1701824275.6,286047000.8,N
1701824295.4,286046998.1,N
1701824315.2,286046998.5,N
1701824335.1,286046998.1,N
1701824336.0,286046998.1,N
1701824355.8,286046998.3,N
1701824375.6,286046998.1,N
1701824395.5,286046996.8,N
